VE3MNX Weather Reports


time (UTC)temp
C
wind
direction
speed
KPH
gust
KPH
rain 1hr
cm
rain 24hr
cm
rain mn
cm
humidity
%
barometer
mb
20260904152348 22 263 4.8 11.3 0.53 3.56 0.69 99 1015.2
20260904150847 22 277 3.2 9.7 0.48 3.40 0.53 99 1015.6
20260904145348 22 265 1.6 3.2 0.33 3.23 0.36 99 1015.2
20260904143849 22 170 0.0 1.6 0.23 3.12 0.25 99 1014.6
20260904142348 22 169 0.0 1.6 0.13 3.02 0.15 99 1014.9
20260904140848 22 160 0.0 0.0 0.03 2.92 0.05 99 1014.9
20260904135348 22 180 1.6 3.2 0.00 2.90 0.03 99 1014.6
20260904133848 22 222 1.6 3.2 0.03 2.90 0.03 99 1014.2
20260904132349 22 198 1.6 4.8 0.03 2.90 0.03 99 1014.2
20260904130848 21 153 3.2 3.2 0.03 2.90 0.03 99 1013.9
20260904125348 21 184 3.2 3.2 0.03 2.90 0.03 99 1014.2
20260904123848 21 153 0.0 4.8 0.00 2.87 0.00 99 1014.2
20260904122349 21 198 4.8 8.0 0.00 2.87 0.00 99 1013.9
20260904120848 21 177 8.0 9.7 0.00 2.87 0.00 99 1013.9
20260904115348 21 220 3.2 8.0 0.00 2.87 0.00 99 1013.5
20260904113847 21 90 3.2 8.0 0.00 2.87 0.00 99 1013.5
20260904112348 21 77 3.2 4.8 0.00 2.87 0.00 99 1013.9
20260904110848 21 270 1.6 4.8 0.00 2.87 0.00 99 1013.5
20260904105349 20 226 1.6 4.8 0.00 2.87 0.00 99 1013.9
20260904103847 20 123 8.0 8.0 0.00 2.87 0.00 99 1013.5
20260904102349 20 72 1.6 8.0 0.00 2.87 0.00 99 1013.2
20260904100847 20 73 1.6 8.0 0.00 2.87 0.00 99 1012.9
20260904095349 20 70 3.2 8.0 0.00 2.87 0.00 99 1012.9
20260904093848 20 48 1.6 3.2 0.00 2.87 0.00 99 1013.2
20260904092347 20 66 3.2 4.8 0.00 2.87 0.00 99 1013.2
20260904090848 20 42 1.6 4.8 0.00 2.87 0.00 99 1013.2
20260904085348 19 14 0.0 3.2 0.00 2.87 0.00 99 1013.9
20260904083848 19 354 1.6 3.2 0.00 2.87 0.00 99 1013.5
20260904082351 19 16 1.6 3.2 0.00 2.87 0.00 99 1013.2
20260904080848 19 36 3.2 4.8 0.00 2.87 0.00 99 1012.9
20260904075349 19 340 1.6 3.2 0.00 2.87 0.00 99 1012.9
20260904073849 19 339 3.2 8.0 0.00 2.87 0.00 99 1013.5
20260904072348 20 333 1.6 3.2 0.00 2.87 0.00 99 1013.2
20260904070848 20 328 0.0 0.0 0.00 2.87 0.00 99 1013.4
20260904065350 20 328 0.0 0.0 0.00 2.87 0.00 99 1013.4
20260904063848 21 328 0.0 0.0 0.00 2.87 0.00 99 1013.2
20260904062348 20 328 0.0 0.0 0.00 2.87 0.00 99 1013.5
20260904060920 21 328 1.6 1.6 0.00 2.87 0.00 99 1013.5
20260904060848 21 328 1.6 1.6 0.00 2.87 0.00 99 1013.5
20260904055348 21 328 1.6 3.2 0.00 2.87 0.00 99 1013.9
20260904053848 20 329 3.2 4.8 0.00 2.87 0.00 99 1013.9
20260904052348 20 328 1.6 3.2 0.00 2.87 0.00 99 1013.9
20260904050847 20 332 3.2 4.8 0.00 2.87 0.00 99 1013.5
20260904045348 20 328 1.6 3.2 0.00 2.87 0.00 99 1013.5
20260904043847 20 333 3.2 3.2 0.00 2.87 0.00 99 1013.5
20260904042351 20 333 0.0 0.0 0.00 2.87 0.00 99 1013.5
20260904040848 20 333 1.6 3.2 0.00 2.87 0.00 99 1013.2
20260904040010 20 332 1.6 3.2 0.00 2.87 0.00 99 1013.5
20260904034508 20 328 3.2 4.8 0.00 2.87 1.32 99 1013.5
20260904033007 20 328 3.2 4.8 0.00 2.87 1.32 99 1013.2
20260904031507 20 331 3.2 4.8 0.00 2.87 1.32 99 1013.2
20260904030011 20 330 4.8 8.0 0.00 2.87 1.32 99 1013.2
20260904024511 20 332 4.8 8.0 0.00 2.87 1.32 99 1012.9
20260904023023 20 327 3.2 4.8 0.00 2.87 1.32 99 1013.2
20260904021513 21 333 4.8 8.0 0.00 2.87 1.32 99 1013.2